Regional Weather Roundup
Issued by NWS

Home | Current Version | Previous Version | Graphics & Text | Print | Product List | Glossary On
Versions: 1 2 3 4 5 6 7 8 9 10 11 12 13 14 15 16 17 18 19 20 21 22 23 24 25 26 27 28 29 30 31 32 33 34 35 36 37 38 39 40 41 42 43 44 45 46 47 48 49 50
000
ASUS43 KBIS 291810
RWRND

NORTH DAKOTA REGIONAL WEATHER ROUNDUP
NATIONAL WEATHER SERVICE BISMARCK ND
100 PM CDT FRI JUL 29 2016

NOTE: "FAIR" INDICATES FEW OR NO CLOUDS BELOW 12,000 FEET WITH NO
SIGNIFICANT WEATHER AND/OR OBSTRUCTIONS TO VISIBILITY.


NDZ001>003-009>011-017-291900-
NORTHWEST NORTH DAKOTA

CITY           SKY/WX    TMP DP  RH WIND       PRES   REMARKS
WILLISTON      MOSUNNY   77  51  40 CALM      30.06F
6HR MIN TEMP:  51; 6HR MAX TEMP:  78;

MINOT          PTSUNNY   80  61  52 SE7       30.05F
MINOT AFB      MOSUNNY   76  60  56 SE10      30.04F
$$

NDZ018>021-031>035-040>046-291900-
SOUTHWEST NORTH DAKOTA

CITY           SKY/WX    TMP DP  RH WIND       PRES   REMARKS
BISMARCK       PTSUNNY   76  59  55 CALM      30.07F
6HR MIN TEMP:  61; 6HR MAX TEMP:  79;

DICKINSON      PTSUNNY   72  57  59 S8        30.07F
GARRISON         N/A     75  62  64 VRB6      30.07S
6HR MIN TEMP:  61; 6HR MAX TEMP:  76;

HETTINGER ARPT MOSUNNY   78  55  44 VRB7      30.09F
$$

NDZ004>008-012>016-024-026-027-054-291900-
NORTHEAST NORTH DAKOTA

CITY           SKY/WX    TMP DP  RH WIND       PRES   REMARKS
GRAND FORKS    CLOUDY    77  54  44 VRB5      30.06F
GRND FRKS AFB  CLOUDY    75  55  49 CALM      30.07F
DEVILS LAKE    MOSUNNY   72  58  61 SE7       30.09F
$$

NDZ022-023-025-028>030-036>039-047>053-291900-
SOUTHEAST NORTH DAKOTA

CITY           SKY/WX    TMP DP  RH WIND       PRES   REMARKS
FARGO          CLOUDY    77  58  51 N5        30.07F
6HR MIN TEMP:  59; 6HR MAX TEMP:  78;

JAMESTOWN      MOSUNNY   76  61  59 SE10      30.08F
$$




USA.gov is the U.S. government's official web portal to all federal, state and local government web resources and services.